Vertical_Velocity
1 3 1 2 1 1 0 2 -0 0 0 2 0 1 -1 0 -0 -0 -0 -2 -0 -0 -2 -1 -2 -2 -1 -1 0 3 -2 -0 1 1 2 -1 0 -0 -1 -2 -1 -2 -2 -0 -2
1 0 -0 3 -1 -1 1 0 2 1 -2 1 -0 -1 0 1 -1 -0 1 -1 -2 1 -1 -1 -2 -1 -3 -2 -1 0 -0 -2 -0 1 4 1 -1 -1 1 -2 -2 -2 -2 -2 -4
-1 3 1 0 4 3 3 -2 2 1 -0 1 0 -1 -1 0 -2 1 -0 -1 -1 -0 -2 -1 -2 -1 -1 -2 -1 2 -2 -2 1 -2 -1 2 1 -2 0 1 1 -0 -3 -1 -5
-0 5 -1 0 -0 1 -1 1 0 2 -0 -1 -0 1 -0 -0 -1 -0 -1 -0 -0 0 0 -1 -1 -2 1 -1 -0 1 -1 -3 1 -2 -1 -0 2 2 0 -0 1 -3 -2 -3 -2
1 0 1 -0 1 0 2 1 0 4 1 0 -1 -1 -0 0 -1 -3 -0 -0 -0 0 1 -1 -2 -3 2 -2 0 -0 -2 -3 -1 -3 -1 0 0 -0 -0 -1 -0 -2 -1 -3 0
2 3 1 -1 -1 0 3 -1 1 3 1 -1 -0 -2 -1 0 -0 -2 -1 -1 -1 1 2 1 -0 -2 1 -1 -2 1 -1 -2 -4 -3 -0 0 -3 -2 -1 1 -1 -2 -2 -0 0
1 2 0 0 1 0 -0 1 0 2 1 0 -1 -2 -0 -4 -0 0 -1 -1 -1 2 1 2 -1 -1 -3 -1 -2 -1 -2 -1 -1 -2 0 0 -0 4 1 -0 -2 -1 -1 1 -2
0 -1 2 2 -0 -1 1 2 -1 0 1 1 -0 -1 -2 -3 1 0 0 -1 0 1 1 -0 -1 2 3 1 -3 -3 -2 1 -1 0 -0 -2 -0 0 1 -1 1 -2 -2 0 -2
-1 -1 -0 -0 1 -2 0 1 -1 1 1 -0 1 -2 -3 -1 1 -0 -1 -2 -0 -0 0 -0 -1 -0 1 3 -1 -1 1 -1 -2 -0 -3 0 -0 0 -0 -2 1 -1 -2 -2 -3
-1 -1 -2 0 -2 -3 4 0 1 0 -1 0 -0 -2 0 -1 0 -1 -3 -2 1 0 -0 0 0 -0 -1 -0 -0 1 3 1 -2 1 -3 -0 -0 0 0 -1 1 -1 -1 -0 -1
-0 -0 -1 -0 -3 -2 5 1 0 -1 -1 1 1 -1 -1 -3 -0 -1 -1 -1 1 0 -0 -0 1 -3 -1 1 1 1 1 2 -4 -1 -1 -2 -1 -2 3 1 -1 -0 1 -4 -1
-0 -0 0 0 -0 -2 3 -0 -3 2 1 1 0 -1 0 -1 -1 -1 1 -1 -2 -2 -0 1 -0 -3 2 1 -1 1 1 3 -5 -3 -1 1 -3 -4 -4 -2 -4 1 3 -5 -4
-1 -1 1 1 -1 -0 2 -1 -3 2 2 2 1 -1 -0 -1 -0 1 0 -1 -1 2 -1 -3 -1 0 1 3 2 0 -1 -6 0 -2 0 -2 -2 -2 -3 -0 -4 -1 -1 -3 -0
0 1 -0 2 0 -0 2 0 -2 2 4 -3 3 -3 -2 2 -3 -1 1 -1 2 -1 -2 0 0 -2 0 2 1 -2 1 1 -2 2 -3 -1 1 -4 -5 2 -0 -2 -2 0 2
2 1 -1 2 1 2 5 -1 3 4 1 -2 0 2 3 -1 5 1 -2 -3 2 -4 -3 -4 1 -0 1 0 3 -1 1 -0 -0 1 0 1 2 -2 -4 -0 -0 -2 0 2 1
2 -0 -1 2 2 4 2 -3 2 1 -3 -5 -2 -2 3 2 -1 -6 -4 -2 -1 1 0 2 1 -2 3 -3 2 2 -1 0 -3 -4 -3 -1 -1 5 -6 0 -1 -4 1 3 0
2 -2 2 0 1 1 -2 0 -3 -8 2 -0 4 1 3 -0 -1 -2 2 1 -2 -4 2 -2 -2 -0 -3 -4 1 2 -1 -1 -2 -1 -3 -2 -1 3 -3 1 2 -1 -1 0 2
-0 2 -7 1 0 0 -2 -1 -4 6 4 4 2 3 1 -0 1 4 0 -1 -2 1 2 -1 1 -2 4 0 -3 -3 -2 1 -0 0 0 -2 -1 -4 -3 1 3 3 2 -0 -1
0 -2 -4 0 -1 -2 -2 -1 5 2 0 -0 3 3 2 2 -0 1 2 0 -2 2 2 1 -6 0 -2 2 0 1 -4 5 -2 0 2 1 -2 1 -2 -0 -1 1 -1 -4 -3
1 0 -1 1 0 -1 -3 2 -2 1 2 0 2 5 2 -2 2 1 -0 4 0 5 -3 -7 -1 1 4 4 2 3 3 -2 -1 -1 2 -1 -0 -1 -1 -3 -1 2 1 -2 -4
-1 -0 -2 1 1 -1 -3 -1 -2 2 4 4 1 -2 -1 1 -3 -0 -2 1 2 3 -1 5 2 -4 1 3 2 1 4 -0 1 0 -1 -1 -1 3 1 -2 -3 2 2 1 -3
0 -0 -2 2 -1 -1 0 -0 3 3 2 2 -1 -2 -2 2 2 4 0 -0 -3 2 -1 0 1 0 3 -3 3 2 1 -3 1 -0 -2 -2 -2 -0 0 -3 -2 1 0 -1 -0
-0 1 -0 -0 -1 -2 0 0 4 4 -1 0 -2 -2 0 2 2 2 4 0 0 -1 -2 1 -5 -1 6 -0 1 1 3 1 -0 1 0 -0 -2 2 0 0 -3 -2 -2 0 4
1 -0 1 2 2 0 -2 2 -4 0 -3 1 -2 1 -1 1 0 2 1 1 0 -0 0 3 0 -3 6 7 1 0 -1 1 -1 -1 -3 -3 -2 1 -0 1 6 3 3 5 -3
0 1 0 1 -1 -0 -0 4 -2 1 -0 -0 2 0 -1 -0 3 4 -1 1 1 -1 -2 1 4 2 1 6 6 4 1 0 -1 -2 -2 -5 -2 -1 2 3 -3 1 -2 3 -3
2 2 -1 3 1 1 -0 3 2 1 1 0 -1 2 1 0 -1 3 1 2 1 1 -1 -3 -6 0 0 4 4 5 8 4 -1 -1 -2 -3 -4 -3 -5 -1 2 3 6 0 -4
-1 2 -0 3 2 -0 -1 0 1 0 1 -1 -2 -0 0 -1 2 -3 5 5 0 -0 -0 1 -1 -2 -6 -1 3 -1 4 5 0 -1 -1 -0 -1 -2 -4 -2 -3 1 2 -3 -3
Height
5875 5878 5880 5882 5885 5888 5890 5892 5894 5896 5898 5901 5903 5905 5907 5908 5911 5912 5913 5915 5914 5915 5916 5917 5917 5918 5920 5921 5922 5923 5924 5924 5926 5926 5927 5926 5925 5924 5922 5919 5917 5914 5912 5911 5909
5873 5875 5878 5880 5883 5886 5888 5891 5893 5895 5898 5900 5903 5905 5907 5908 5911 5913 5914 5915 5915 5916 5917 5918 5918 5918 5920 5921 5923 5923 5924 5925 5926 5927 5927 5926 5925 5923 5922 5920 5916 5914 5912 5909 5908
5871 5873 5876 5879 5880 5883 5886 5890 5891 5893 5896 5899 5902 5904 5906 5908 5910 5912 5913 5915 5915 5916 5917 5918 5919 5919 5919 5920 5922 5924 5924 5925 5926 5926 5927 5926 5925 5923 5921 5919 5917 5916 5913 5909 5905
5867 5870 5873 5876 5879 5881 5884 5887 5890 5891 5895 5897 5900 5902 5905 5907 5910 5911 5913 5914 5915 5915 5917 5918 5919 5919 5921 5921 5922 5924 5925 5925 5925 5926 5927 5926 5925 5924 5922 5921 5919 5915 5913 5909 5905
5863 5867 5870 5873 5876 5879 5882 5884 5887 5889 5893 5894 5897 5900 5903 5905 5908 5909 5911 5913 5914 5915 5917 5918 5918 5920 5921 5921 5922 5923 5924 5925 5925 5924 5925 5925 5924 5924 5922 5920 5917 5915 5912 5908 5905
5859 5863 5866 5870 5872 5875 5879 5882 5885 5887 5890 5892 5895 5898 5900 5903 5905 5907 5909 5911 5913 5914 5916 5917 5918 5919 5921 5921 5922 5923 5924 5924 5924 5923 5924 5925 5923 5922 5921 5918 5916 5914 5912 5908 5905
5854 5858 5862 5866 5869 5872 5876 5879 5882 5884 5887 5890 5892 5894 5898 5900 5902 5905 5907 5909 5911 5912 5914 5916 5918 5918 5919 5920 5921 5922 5923 5923 5923 5923 5923 5923 5924 5923 5921 5918 5915 5914 5911 5908 5904
5849 5853 5857 5861 5865 5868 5872 5875 5878 5881 5884 5887 5889 5892 5894 5897 5900 5902 5904 5907 5908 5910 5912 5914 5916 5917 5918 5919 5920 5920 5921 5922 5922 5922 5922 5922 5922 5922 5919 5917 5914 5913 5911 5907 5904
5843 5847 5852 5856 5859 5863 5868 5871 5874 5877 5880 5884 5886 5889 5892 5894 5897 5899 5902 5904 5906 5908 5909 5911 5914 5916 5917 5918 5919 5920 5920 5920 5920 5920 5921 5920 5919 5919 5917 5915 5913 5911 5910 5906 5902
5837 5841 5845 5850 5854 5858 5863 5866 5870 5874 5877 5880 5882 5886 5888 5891 5893 5896 5898 5901 5903 5906 5908 5909 5911 5913 5914 5915 5917 5918 5919 5918 5918 5919 5919 5918 5917 5916 5915 5913 5912 5910 5908 5904 5900
5830 5834 5839 5844 5848 5853 5859 5862 5868 5871 5873 5876 5878 5881 5883 5886 5889 5893 5895 5898 5900 5903 5905 5907 5909 5909 5912 5913 5914 5916 5917 5917 5915 5916 5917 5916 5915 5913 5914 5912 5910 5909 5906 5902 5896
5822 5827 5832 5838 5842 5848 5854 5857 5861 5865 5868 5871 5874 5877 5880 5883 5886 5889 5892 5895 5896 5899 5901 5905 5906 5906 5909 5910 5911 5912 5914 5914 5914 5914 5915 5915 5913 5911 5912 5909 5907 5906 5903 5899 5896
5816 5821 5825 5831 5835 5842 5848 5852 5855 5859 5864 5867 5870 5872 5876 5880 5882 5885 5888 5890 5893 5896 5898 5901 5903 5904 5907 5908 5908 5909 5910 5910 5912 5912 5913 5912 5911 5909 5909 5907 5905 5903 5899 5898 5895
5810 5815 5819 5824 5831 5836 5842 5846 5850 5855 5860 5863 5866 5868 5872 5875 5877 5880 5883 5887 5890 5892 5895 5898 5900 5901 5904 5905 5906 5906 5907 5909 5910 5910 5910 5910 5910 5907 5906 5906 5903 5901 5900 5897 5894
5805 5809 5813 5819 5823 5830 5835 5839 5845 5850 5854 5858 5861 5865 5868 5871 5875 5877 5880 5883 5885 5888 5892 5893 5896 5898 5900 5901 5903 5903 5905 5906 5907 5907 5908 5908 5906 5906 5905 5903 5901 5899 5898 5896 5893
5801 5805 5809 5814 5818 5823 5828 5834 5840 5846 5848 5853 5856 5859 5863 5866 5870 5873 5876 5879 5881 5884 5887 5889 5892 5895 5896 5897 5899 5900 5901 5902 5902 5903 5904 5904 5902 5902 5902 5901 5899 5897 5896 5894 5891
5796 5800 5804 5809 5814 5818 5822 5828 5834 5839 5844 5848 5851 5855 5859 5863 5866 5868 5872 5875 5877 5881 5883 5884 5887 5889 5890 5893 5895 5896 5898 5898 5899 5899 5900 5899 5898 5897 5898 5897 5897 5894 5892 5890 5887
5790 5794 5798 5804 5808 5813 5817 5823 5828 5832 5837 5842 5847 5851 5854 5858 5861 5863 5867 5870 5874 5876 5878 5880 5884 5885 5886 5889 5890 5891 5893 5895 5894 5895 5896 5895 5895 5895 5894 5893 5893 5890 5888 5886 5883
5782 5787 5791 5798 5802 5806 5811 5814 5821 5826 5832 5837 5841 5845 5848 5851 5856 5858 5862 5866 5868 5871 5873 5875 5878 5880 5881 5883 5886 5887 5888 5890 5890 5891 5892 5892 5891 5891 5890 5889 5889 5887 5884 5882 5881
5774 5778 5784 5789 5793 5797 5801 5809 5814 5820 5826 5830 5833 5837 5841 5845 5850 5853 5855 5859 5862 5864 5866 5870 5873 5874 5876 5878 5880 5881 5883 5884 5885 5887 5888 5889 5889 5889 5887 5885 5885 5884 5880 5879 5877
5766 5770 5775 5779 5784 5788 5793 5801 5807 5813 5818 5822 5826 5831 5835 5839 5843 5847 5849 5852 5855 5858 5861 5865 5867 5869 5870 5872 5873 5875 5877 5879 5882 5883 5885 5886 5887 5886 5884 5883 5882 5880 5877 5875 5873
5758 5762 5767 5771 5776 5781 5788 5794 5800 5804 5809 5814 5819 5823 5828 5833 5837 5840 5842 5845 5848 5852 5855 5858 5861 5864 5865 5865 5867 5870 5872 5873 5877 5880 5881 5881 5884 5882 5882 5880 5879 5877 5874 5873 5869
5749 5754 5759 5763 5767 5774 5780 5785 5790 5796 5801 5807 5811 5816 5821 5826 5830 5833 5836 5838 5842 5846 5850 5853 5856 5859 5861 5862 5863 5865 5868 5870 5873 5876 5877 5877 5880 5880 5879 5878 5876 5874 5873 5871 5869
5741 5745 5750 5755 5761 5766 5772 5776 5781 5788 5794 5799 5803 5808 5814 5819 5823 5826 5829 5833 5836 5840 5844 5848 5850 5854 5858 5859 5860 5862 5863 5866 5869 5871 5871 5872 5874 5875 5875 5874 5873 5871 5871 5869 5867
5731 5736 5741 5745 5752 5757 5762 5768 5774 5780 5786 5790 5795 5801 5806 5811 5815 5819 5822 5825 5830 5834 5838 5842 5845 5848 5852 5855 5857 5858 5860 5862 5864 5866 5867 5868 5868 5870 5871 5870 5870 5869 5867 5866 5864
5721 5726 5731 5737 5742 5747 5753 5759 5765 5771 5777 5781 5787 5793 5798 5802 5807 5812 5816 5819 5822 5827 5831 5834 5838 5842 5845 5848 5851 5853 5856 5858 5859 5861 5862 5863 5864 5864 5865 5866 5866 5866 5864 5863 5860
5711 5716 5721 5727 5733 5739 5744 5750 5755 5761 5766 5771 5777 5783 5788 5793 5798 5803 5809 5813 5816 5820 5824 5828 5831 5834 5837 5840 5843 5847 5851 5852 5854 5855 5857 5858 5860 5860 5860 5860 5861 5861 5862 5859 5858